This is the latest recevied weather packets stored in our database for station/object KD8ZLZ-13. If no packets are shown the sender has not sent any weather packets the latest 1 day(s).
| Time | Temp. | Humidity | Pressure | Rain* | Wind** | Luminosity | Snow |
|---|---|---|---|---|---|---|---|
| 1777972382 | 14.44° C | 81% | 1002.7 hPa | 0 mm | 2.68 m/s, 217° | 0 W/m² | - |
| 1777971782 | 14.44° C | 82% | 1002.7 hPa | 0 mm | 2.24 m/s, 228° | 0 W/m² | - |
| 1777971182 | 14.44° C | 82% | 1002.7 hPa | 0 mm | 1.79 m/s, 219° | 0 W/m² | - |
| 1777970582 | 14.44° C | 82% | 1002.7 hPa | 0 mm | 2.24 m/s, 214° | 0 W/m² | - |
| 1777969982 | 14.44° C | 82% | 1002 hPa | 0 mm | 2.24 m/s, 218° | 0 W/m² | - |
| 1777969382 | 14.44° C | 83% | 1002 hPa | 0 mm | 2.24 m/s, 214° | 0 W/m² | - |
| 1777968782 | 14.44° C | 83% | 1002 hPa | 0 mm | 1.79 m/s, 206° | 0 W/m² | - |
| 1777968182 | 14.44° C | 84% | 1001.7 hPa | 0 mm | 1.79 m/s, 206° | 0 W/m² | - |
| 1777967582 | 14.44° C | 84% | 1001.7 hPa | 0 mm | 2.24 m/s, 219° | 0 W/m² | - |
| 1777966982 | 14.44° C | 84% | 1001.3 hPa | 0 mm | 1.79 m/s, 211° | 0 W/m² | - |
| 1777966382 | 14.44° C | 86% | 1001.7 hPa | 0 mm | 1.34 m/s, 222° | 0 W/m² | - |
| 1777965782 | 14.44° C | 86% | 1001.7 hPa | 0 mm | 1.34 m/s, 226° | 0 W/m² | - |
| 1777965182 | 14.44° C | 85% | 1001.7 hPa | 0 mm | 1.34 m/s, 206° | 0 W/m² | - |
| 1777964582 | 14.44° C | 83% | 1002 hPa | 0 mm | 1.34 m/s, 217° | 0 W/m² | - |
| 1777963982 | 15° C | 82% | 1002 hPa | 0 mm | 2.24 m/s, 209° | 0 W/m² | - |
| 1777963382 | 14.44° C | 84% | 1002 hPa | 0 mm | 2.24 m/s, 203° | 0 W/m² | - |
| 1777962782 | 14.44° C | 84% | 1001.7 hPa | 0 mm | 1.34 m/s, 216° | 0 W/m² | - |
| 1777962593 | 14.44° C | 83% | 1001.7 hPa | 0 mm | 1.79 m/s, 214° | 0 W/m² | - |
| 1777962124 | 14.44° C | 84% | 1001.7 hPa | 0 mm | 1.79 m/s, 218° | 0 W/m² | - |
| 1777961524 | 14.44° C | 86% | 1001.7 hPa | 0 mm | 1.79 m/s, 212° | 0 W/m² | - |
* Rain latest hour (hover to see other rain measurements)
** Current wind speed in m/s (hover to see current wind gust speed)